Regional Weather Roundup
Issued by NWS Upton, NY

Current Version | Previous Version | Graphics & Text | Print | Product List | Glossary Off
Versions: 1 2 3 4 5 6 7 8 9 10 11 12 13 14 15 16 17 18 19 20 21 22 23 24 25 26 27 28 29 30 31 32 33 34 35 36 37 38 39 40 41 42 43 44 45 46 47 48 49 50

000
ASUS41 KOKX 271105
RWROKX

REGIONAL WEATHER ROUNDUP
NATIONAL WEATHER SERVICE NEW YORK NY
600 AM EST FRI FEB 27 2015

NOTE: "FAIR" INDICATES FEW OR NO CLOUDS BELOW 12,000 FEET WITH NO
SIGNIFICANT WEATHER AND/OR OBSTRUCTIONS TO VISIBILITY.

NYZ071-072-176-178-NJZ106-104-271200-
NEW YORK CITY METRO AREA


CITY           SKY/WX    TMP DP  RH WIND       PRES   REMARKS
CENTRAL PARK   MOCLDY    19   3  49 VRB5      30.31R WCI  12
LAGUARDIA APRT CLOUDY    20   7  57 NW9       30.29R WCI   9
KENNEDY INTL   MOCLDY    20   4  50 N10       30.30R WCI   9
NEWARK/LIBERTY CLOUDY    19   8  62 N12       30.31R WCI   7
BRNX BOT. GARD   N/A    N/A N/A N/A W1        30.30R
TETERBORO      MOCLDY    17   6  62 N6        30.30R WCI   9
$$

NYZ177-179-078>081-271200-
LONG ISLAND NEW YORK

CITY           SKY/WX    TMP DP  RH WIND       PRES   REMARKS
FARMINGDALE    PTCLDY    18   6  59 N5        30.28R WCI  11
ISLIP          MOCLDY    19   7  59 N8        30.26R WCI   9
SHIRLEY        PTCLDY    14   6  70 NW3       30.28R
WESTHAMPTON    PTCLDY     5   0  79 CALM      30.28R
MONTAUK POINT    N/A     23   6  48 N8        30.27R WCI  14
$$

NYZ052-065-067-271200-
HUDSON VALLEY

CITY           SKY/WX    TMP DP  RH WIND       PRES   REMARKS
WHITE PLAINS   CLOUDY    13   1  59 NW7       30.25R WCI   3
NEWBURGH       PTCLDY     9   1  72 CALM      30.27R
MONTGOMERY     MOCLDY    -1  -5  82 CALM      30.28R
POUGHKEEPSIE   CLEAR      3  -2  79 CALM      30.30R
ALBANY         MOCLDY     6  -4  63 N7        30.33R WCI  -6
$$

NJZ001-105-106-008-010-013-015-019>022-104-271200-
NEW JERSEY

CITY           SKY/WX    TMP DP  RH WIND       PRES   REMARKS
NEWARK/LIBERTY CLOUDY    19   8  62 N12       30.31R WCI   7
TETERBORO      MOCLDY    17   6  62 N6        30.30R WCI   9
CALDWELL       CLOUDY    15   6  67 CALM      30.31R
MORRISTOWN     CLOUDY    19   7  58 N3        30.30R
SOMERVILLE     CLOUDY    18   5  57 N7        30.29R WCI   9
SUSSEX         CLOUDY     6   0  76 CALM      30.27R
ANDOVER          N/A     12   4  70 VRB3      30.28R
TRENTON        CLOUDY    20   9  62 N9        30.29R WCI   9
MILLVILLE      CLOUDY    23  16  74 N6        30.28R WCI  16
ATLANTIC CITY  CLOUDY    17  12  80 N3        30.28R
WRIGHTSTOWN    FLURRIES  21  14  73 N7        30.27R WCI  12
TOMS RIVER     CLOUDY    19  16  86 N7        30.29R WCI  10
BELMAR         CLOUDY    19   9  63 NW6       30.27R WCI  11
$$

PAZ047>061-062-071-271200-
EASTERN PENNSYLVANIA

CITY           SKY/WX    TMP DP  RH WIND       PRES   REMARKS
PHILADELPHIA   LGT SNOW  24  15  68 N9        30.31R WCI  14
ALLENTOWN      CLOUDY    16   4  59 NW7       30.30R WCI   6
SCRANTON       CLOUDY     9   0  67 N7        30.28R WCI  -2
$$

CTZ002-004>006-009-010-012-RIZ004-006-007-MAZ004-011-015-271200-
SOUTHERN NEW ENGLAND
 IN CT

CITY           SKY/WX    TMP DP  RH WIND       PRES   REMARKS
BRADLEY INTL   PTCLDY    14   2  58 NW8       30.27R WCI   3
HARTFORD       CLEAR     14   3  61 N7        30.29R WCI   4
DANBURY        CLEAR      3  -3  76 CALM      30.27R
WTRBRY/OXFORD  CLEAR     10  -2  56 N8        30.23R WCI  -1
BRIDGEPORT     CLEAR     16   4  59 N6        30.28R WCI   7
MERIDEN        PTCLDY    10   1  67 NW5       30.28R WCI   2
NEW HAVEN      PTCLDY    16   3  56 N8        30.27R WCI   5
CHESTER        CLOUDY    18   3  53 N6        30.24R WCI   9
GROTON         PTCLDY     8   3  80 N3        30.26R
WILLIMANTIC    PTCLDY     3  -2  79 NE3       30.27R

 IN RI

CITY           SKY/WX    TMP DP  RH WIND       PRES   REMARKS
PROVIDENCE     MOCLDY    10   4  76 W3        30.26R
BLOCK ISLAND   CLEAR     19  10  68 N7        30.22R WCI  10
WESTERLY       CLEAR      8   2  76 NE3       30.25R

 IN MA

CITY           SKY/WX    TMP DP  RH WIND       PRES   REMARKS
BOSTON         PTCLDY    15  -1  49 NW9       30.27R WCI   3
WORCESTER      CLOUDY    10  -4  53 NW7       30.17R WCI  -1
WESTFIELD      PTCLDY    12   0  58 NW7       30.27R WCI   1
PROVINCETOWN   CLEAR     21   7  53 NW10      30.24R WCI  10
NANTUCKET      CLEAR     21  11  65 NW10      30.22R WCI  10
$$

ANZ330-335-338-340-345-350-353-355-271200-
COASTAL MARINE OBSERVATIONS


STATION/POSITION TIME  SKY/WX   TEMP    WIND        PRES    VSBY  WAVE
                                AIR SEA DIR/SP/G                  HT/PER
                 (UTC)          (F)     (DEG/KT/KT) (MB)    (MI)  (FT/S)
NY HARB ENTRANCE 1100            24 38  350/ 12/ 16 1025.2          4/11
4S FIRE IS       NOT AVBL
20S FIRE ISLAND  1000               36              1024.2          5/11
23SW MTP         1100                                 N/A           5/11
HUDSON CANYON    NOT AVBL
EXECUTION ROCKS  NOT AVBL
WESTERN LI SOUND NOT AVBL
CENTRAL LI SOUND NOT AVBL
EASTERN LI SOUND NOT AVBL
ROBBINS REEF     1100            19     350/ 12/ 13 1024.5
$$


>>>>>>>>>>>>>>>>>>>>>>>>>>>> KEY <<<<<<<<<<<<<<<<<<<<<<<<<<<
>                                                          <
>     SKY/WX - SKY CONDITION/PRESENT WEATHER               <
>     TMP    - TEMPERATURE IN FAHRENHEIT                   <
>     DP     - DEWPOINT IN FAHRENHEIT                      <
>     RH     - RELATIVE HUMIDITY IN PERCENT                <
>     WIND   - DIRECTION AND SPEED IN MPH                  <
>     PRES   - MEAN SEA LEVEL PRESSURE IN INCHES OF HG     <
>     WCI    - WIND CHILL INDEX                            <
>     VSB    - VISIBILITY IN MILES                         <
>     HX     - HEAT INDEX                                  <
>     TC     - TEMPERATURE IN CELSIUS                      <
>     VRB    - VARIABLE WIND DIRECTION                     <
>                                                          <
>>>>>>>>>>>>>>>>>>>>>>>>>>>> KEY <<<<<<<<<<<<<<<<<<<<<<<<<<<




USA.gov is the U.S. government's official web portal to all federal, state and local government web resources and services.